AMX27LB MMAA-MMCV

Flight info

Callsign AMX27LB
Flight time 1h 6m
Altitude 35000
Route TEXCA3A TEXCA J21 TMN/N0478F340 J21 CVM DCT
Aircraft B38M/M-SDE1FGHILORVWXY/HB1

Departure

Time 2026-04-22 12:46
Airport General Juan N. Álvarez International Airport (MMAA)

Arrival

Time 2026-04-22 13:53
Airport General Pedro Jose Mendez International Airport (MMCV)
Time Latitude Longitude Altitude Speed Heading
2026-04-22 12:27 16.76125 -99.75490 19 ft 0 kts 18°
2026-04-22 12:38 16.76112 -99.75495 21 ft 4 kts 18°
2026-04-22 12:39 16.76086 -99.75504 19 ft 4 kts 18°
2026-04-22 12:39 16.76039 -99.75522 20 ft 4 kts 46°
2026-04-22 12:39 16.76033 -99.75544 20 ft 4 kts 103°
2026-04-22 12:40 16.76037 -99.75560 20 ft 1 kts 109°
2026-04-22 12:40 16.76038 -99.75563 22 ft 0 kts 109°
2026-04-22 12:42 16.76036 -99.75557 20 ft 2 kts 109°
2026-04-22 12:43 16.76027 -99.75528 21 ft 6 kts 109°
2026-04-22 12:43 16.76007 -99.75470 20 ft 11 kts 109°
2026-04-22 12:43 16.75952 -99.75417 20 ft 13 kts 179°
2026-04-22 12:43 16.75886 -99.75483 23 ft 15 kts 247°
2026-04-22 12:44 16.75842 -99.75595 25 ft 18 kts 248°
2026-04-22 12:44 16.75816 -99.75643 24 ft 0 kts 206°
2026-04-22 12:44 16.75811 -99.75644 24 ft 3 kts 193°
2026-04-22 12:44 16.75796 -99.75638 24 ft 1 kts 137°
2026-04-22 12:45 16.75794 -99.75637 24 ft 0 kts 135°
2026-04-22 12:45 16.75793 -99.75635 24 ft 2 kts 130°
2026-04-22 12:45 16.75783 -99.75612 25 ft 4 kts 109°
2026-04-22 12:45 16.75774 -99.75585 24 ft 6 kts 108°
2026-04-22 12:46 16.75708 -99.75366 24 ft 69 kts 108°
2026-04-22 12:46 16.75480 -99.74646 20 ft 137 kts 108°
2026-04-22 12:46 16.75136 -99.73524 154 ft 182 kts 107°
2026-04-22 12:46 16.74737 -99.72222 751 ft 197 kts 107°
2026-04-22 12:47 16.74355 -99.70799 1419 ft 203 kts 98°
2026-04-22 12:47 16.74548 -99.69350 2161 ft 207 kts 59°
2026-04-22 12:47 16.75580 -99.68398 2967 ft 198 kts 17°
2026-04-22 12:47 16.76926 -99.68330 3688 ft 196 kts 348°
2026-04-22 12:48 16.78291 -99.68608 4294 ft 200 kts 352°
2026-04-22 12:48 16.79680 -99.68586 5056 ft 200 kts
2026-04-22 12:48 16.81036 -99.68409 5752 ft 202 kts
2026-04-22 12:48 16.82425 -99.68187 6525 ft 197 kts
2026-04-22 12:49 16.83766 -99.67963 7232 ft 199 kts
2026-04-22 12:49 16.85213 -99.67745 7528 ft 221 kts
2026-04-22 12:49 16.86805 -99.67486 7862 ft 243 kts
2026-04-22 12:49 16.88558 -99.67188 8257 ft 265 kts
2026-04-22 12:50 16.90412 -99.66869 8708 ft 282 kts
2026-04-22 12:50 16.92399 -99.66530 9266 ft 293 kts
2026-04-22 12:50 16.94417 -99.66196 10117 ft 294 kts
2026-04-22 12:50 16.96483 -99.65855 10579 ft 309 kts
2026-04-22 12:51 16.98683 -99.65485 10855 ft 329 kts
2026-04-22 12:51 17.01017 -99.65093 11070 ft 349 kts
2026-04-22 12:51 17.03477 -99.64679 11231 ft 368 kts
2026-04-22 12:51 17.06073 -99.64242 11330 ft 386 kts
2026-04-22 12:52 17.08746 -99.63794 11518 ft 400 kts
2026-04-22 12:52 17.11506 -99.63340 12079 ft 401 kts
2026-04-22 12:52 17.14277 -99.62894 12568 ft 404 kts
2026-04-22 12:52 17.17063 -99.62448 13074 ft 405 kts
2026-04-22 12:53 17.19865 -99.62001 13531 ft 408 kts
2026-04-22 12:53 17.22683 -99.61551 13969 ft 411 kts
2026-04-22 12:53 17.25517 -99.61099 14376 ft 413 kts
2026-04-22 12:53 17.28366 -99.60644 14741 ft 415 kts
2026-04-22 12:54 17.31196 -99.60193 15107 ft 418 kts
2026-04-22 12:54 17.34088 -99.59731 15454 ft 420 kts
2026-04-22 12:54 17.36987 -99.59269 15799 ft 422 kts
2026-04-22 12:54 17.39898 -99.58795 16134 ft 424 kts 11°
2026-04-22 12:55 17.42774 -99.58047 16456 ft 426 kts 15°
2026-04-22 12:55 17.45652 -99.57272 16795 ft 428 kts 14°
2026-04-22 12:55 17.48552 -99.56509 17095 ft 431 kts 14°
2026-04-22 12:55 17.51472 -99.55749 17397 ft 433 kts 14°
2026-04-22 12:56 17.54404 -99.54991 17695 ft 435 kts 14°
2026-04-22 12:56 17.57319 -99.54236 17973 ft 437 kts 14°
2026-04-22 12:56 17.60288 -99.53468 18263 ft 439 kts 14°
2026-04-22 12:56 17.63259 -99.52700 18512 ft 441 kts 14°
2026-04-22 12:57 17.66248 -99.51926 18740 ft 442 kts 14°
2026-04-22 12:57 17.69241 -99.51151 18958 ft 444 kts 14°
2026-04-22 12:57 17.72246 -99.50373 19192 ft 445 kts 14°
2026-04-22 12:57 17.75261 -99.49592 19403 ft 447 kts 14°
2026-04-22 12:58 17.78287 -99.48808 19615 ft 448 kts 13°
2026-04-22 12:58 17.81300 -99.48026 19810 ft 449 kts 13°
2026-04-22 12:58 17.84346 -99.47237 20020 ft 451 kts 13°
2026-04-22 12:58 17.87373 -99.46451 20213 ft 452 kts 13°
2026-04-22 12:59 17.90454 -99.45652 20455 ft 452 kts 13°
2026-04-22 12:59 17.93469 -99.44869 20707 ft 452 kts 13°
2026-04-22 12:59 17.96567 -99.44065 20873 ft 454 kts 13°
2026-04-22 12:59 17.99627 -99.43270 21042 ft 455 kts 13°
2026-04-22 13:00 18.02725 -99.42464 21255 ft 456 kts 13°
2026-04-22 13:00 18.05791 -99.41667 21406 ft 457 kts 13°
2026-04-22 13:00 18.08863 -99.40868 21595 ft 458 kts 13°
2026-04-22 13:00 18.11952 -99.40065 21764 ft 460 kts 13°
2026-04-22 13:01 18.15098 -99.39246 21932 ft 461 kts 13°
2026-04-22 13:01 18.18198 -99.38438 22084 ft 462 kts 13°
2026-04-22 13:01 18.21312 -99.37627 22247 ft 463 kts 13°
2026-04-22 13:01 18.24480 -99.36802 22407 ft 465 kts 13°
2026-04-22 13:02 18.27587 -99.35992 22565 ft 466 kts 13°
2026-04-22 13:02 18.30765 -99.35163 22707 ft 467 kts 13°
2026-04-22 13:02 18.33916 -99.34342 22869 ft 468 kts 13°
2026-04-22 13:02 18.37035 -99.33528 23025 ft 469 kts 13°
2026-04-22 13:03 18.40245 -99.32690 23159 ft 470 kts 13°
2026-04-22 13:03 18.43409 -99.31863 23309 ft 471 kts 13°
2026-04-22 13:03 18.46562 -99.31040 23449 ft 471 kts 13°
2026-04-22 13:03 18.49788 -99.30197 23610 ft 472 kts 13°
2026-04-22 13:04 18.52957 -99.29368 23746 ft 473 kts 13°
2026-04-22 13:04 18.56154 -99.28532 23879 ft 474 kts 12°
2026-04-22 13:04 18.59339 -99.27699 24067 ft 473 kts 12°
2026-04-22 13:04 18.62518 -99.26867 24192 ft 474 kts 12°
2026-04-22 13:05 18.65758 -99.26019 24323 ft 475 kts 12°
2026-04-22 13:05 18.68955 -99.25225 24442 ft 476 kts 11°
2026-04-22 13:05 18.72163 -99.24449 24564 ft 477 kts 11°
2026-04-22 13:05 18.75439 -99.23651 24686 ft 478 kts 11°
2026-04-22 13:06 18.78653 -99.22866 24790 ft 478 kts 11°
2026-04-22 13:06 18.81879 -99.22077 24886 ft 479 kts 11°
2026-04-22 13:06 18.85172 -99.21272 24995 ft 480 kts 11°
2026-04-22 13:06 18.88416 -99.20479 25104 ft 481 kts 11°
2026-04-22 13:07 18.91665 -99.19684 25158 ft 483 kts 11°
2026-04-22 13:07 18.94974 -99.18874 25198 ft 485 kts 11°
2026-04-22 13:07 18.98276 -99.18065 25311 ft 486 kts 11°
2026-04-22 13:07 19.01545 -99.17265 25310 ft 487 kts 11°
2026-04-22 13:08 19.04827 -99.16460 25417 ft 488 kts 11°
2026-04-22 13:08 19.08169 -99.15641 25540 ft 488 kts 11°
2026-04-22 13:08 19.11449 -99.14836 25712 ft 488 kts 11°
2026-04-22 13:08 19.14735 -99.14030 25894 ft 488 kts 11°
2026-04-22 13:09 19.18074 -99.13210 26099 ft 488 kts 11°
2026-04-22 13:09 19.21345 -99.12407 26292 ft 487 kts 11°
2026-04-22 13:09 19.23567 -99.11861 26424 ft 487 kts 10°
2026-04-22 13:09 19.27956 -99.10783 26686 ft 487 kts 10°
2026-04-22 13:10 19.30190 -99.10234 26827 ft 487 kts 10°
2026-04-22 13:10 19.33475 -99.09426 27043 ft 487 kts 10°
2026-04-22 13:10 19.36762 -99.08618 27250 ft 487 kts 10°
2026-04-22 13:10 19.40049 -99.07809 27445 ft 487 kts 10°
2026-04-22 13:11 19.43360 -99.07014 27637 ft 486 kts
2026-04-22 13:11 19.46700 -99.06328 27833 ft 486 kts
2026-04-22 13:11 19.49994 -99.05646 28034 ft 486 kts
2026-04-22 13:11 19.53295 -99.04955 28238 ft 486 kts
2026-04-22 13:12 19.57704 -99.04031 28493 ft 485 kts
2026-04-22 13:12 19.59957 -99.03558 28638 ft 485 kts
2026-04-22 13:12 19.63246 -99.02867 28836 ft 485 kts
2026-04-22 13:12 19.66533 -99.02177 29044 ft 484 kts
2026-04-22 13:13 19.69866 -99.01476 29424 ft 484 kts
2026-04-22 13:13 19.73124 -99.00797 29668 ft 483 kts
2026-04-22 13:13 19.76488 -99.00407 29907 ft 480 kts
2026-04-22 13:13 19.79801 -99.00113 30166 ft 479 kts
2026-04-22 13:14 19.83100 -98.99829 30423 ft 479 kts
2026-04-22 13:14 19.86425 -98.99545 30617 ft 479 kts
2026-04-22 13:14 19.89758 -98.99261 30807 ft 478 kts
2026-04-22 13:14 19.93049 -98.98981 31017 ft 477 kts
2026-04-22 13:15 19.96396 -98.98696 31262 ft 476 kts
2026-04-22 13:15 19.99675 -98.98417 31454 ft 476 kts
2026-04-22 13:15 20.02969 -98.98136 31640 ft 476 kts
2026-04-22 13:15 20.06246 -98.97857 31841 ft 476 kts
2026-04-22 13:16 20.09577 -98.97573 32016 ft 476 kts
2026-04-22 13:16 20.12859 -98.97293 32224 ft 476 kts
2026-04-22 13:16 20.16187 -98.97009 32442 ft 476 kts
2026-04-22 13:16 20.19478 -98.96728 32660 ft 476 kts
2026-04-22 13:17 20.22754 -98.96449 32849 ft 477 kts
2026-04-22 13:17 20.26099 -98.96163 33081 ft 476 kts 360°
2026-04-22 13:17 20.29389 -98.95882 33314 ft 476 kts 360°
2026-04-22 13:17 20.32666 -98.95601 33544 ft 475 kts 360°
2026-04-22 13:18 20.35945 -98.95321 33761 ft 475 kts 359°
2026-04-22 13:18 20.39260 -98.95037 33982 ft 475 kts 359°
2026-04-22 13:18 20.42541 -98.94757 34177 ft 475 kts 359°
2026-04-22 13:18 20.45825 -98.94476 34350 ft 475 kts 359°
2026-04-22 13:19 20.49160 -98.94192 34518 ft 475 kts 359°
2026-04-22 13:19 20.52433 -98.93912 34702 ft 475 kts 359°
2026-04-22 13:19 20.55703 -98.93632 34871 ft 475 kts 359°
2026-04-22 13:19 20.59036 -98.93352 35117 ft 473 kts 359°
2026-04-22 13:20 20.62307 -98.93074 35157 ft 474 kts 359°
2026-04-22 13:20 20.68844 -98.92509 35126 ft 474 kts 359°
2026-04-22 13:21 20.75448 -98.91943 35105 ft 474 kts 359°
2026-04-22 13:21 20.82035 -98.91374 35181 ft 475 kts 359°
2026-04-22 13:22 20.88572 -98.90811 35090 ft 473 kts 359°
2026-04-22 13:22 20.95175 -98.90242 35080 ft 474 kts 358°
2026-04-22 13:23 21.01723 -98.89675 35088 ft 475 kts 358°
2026-04-22 13:23 21.08330 -98.89105 35081 ft 474 kts 358°
2026-04-22 13:24 21.14900 -98.88538 35072 ft 475 kts 358°
2026-04-22 13:24 21.21483 -98.87969 35068 ft 475 kts 358°
2026-04-22 13:25 21.28075 -98.87398 35056 ft 475 kts 358°
2026-04-22 13:25 21.34657 -98.86827 35048 ft 474 kts 358°
2026-04-22 13:26 21.41230 -98.86255 35056 ft 475 kts 358°
2026-04-22 13:26 21.47802 -98.85684 35046 ft 474 kts 358°
2026-04-22 13:27 21.54354 -98.85115 35046 ft 475 kts 358°
2026-04-22 13:27 21.60948 -98.84541 35046 ft 472 kts 358°
2026-04-22 13:28 21.67473 -98.83973 35035 ft 472 kts 358°
2026-04-22 13:28 21.73896 -98.83413 35029 ft 472 kts 358°
2026-04-22 13:29 21.80455 -98.82840 35011 ft 472 kts 358°
2026-04-22 13:29 21.87019 -98.82267 35009 ft 473 kts 358°
2026-04-22 13:30 21.93574 -98.81694 35007 ft 472 kts 358°
2026-04-22 13:30 22.00122 -98.81121 35008 ft 471 kts 358°
2026-04-22 13:31 22.06611 -98.81057 35022 ft 461 kts 348°
2026-04-22 13:31 22.12982 -98.81616 35005 ft 462 kts 348°
2026-04-22 13:32 22.19376 -98.82186 34097 ft 463 kts 349°
2026-04-22 13:32 22.22607 -98.82475 33329 ft 464 kts 349°
2026-04-22 13:32 22.25823 -98.82765 32367 ft 467 kts 349°
2026-04-22 13:32 22.29081 -98.83057 31600 ft 467 kts 350°
2026-04-22 13:33 22.32317 -98.83347 30692 ft 469 kts 350°
2026-04-22 13:33 22.35592 -98.83642 29831 ft 471 kts 351°
2026-04-22 13:33 22.38816 -98.83932 28846 ft 472 kts 351°
2026-04-22 13:33 22.42116 -98.84229 27729 ft 477 kts 351°
2026-04-22 13:34 22.45421 -98.84527 26897 ft 475 kts 351°
2026-04-22 13:34 22.48714 -98.84823 26156 ft 473 kts 351°
2026-04-22 13:34 22.51989 -98.85118 25471 ft 469 kts 351°
2026-04-22 13:34 22.55242 -98.85412 24813 ft 466 kts 351°
2026-04-22 13:35 22.58422 -98.85699 24132 ft 464 kts 351°
2026-04-22 13:35 22.61636 -98.85989 23444 ft 461 kts 351°
2026-04-22 13:35 22.64831 -98.86277 22639 ft 459 kts 351°
2026-04-22 13:35 22.68008 -98.86563 21971 ft 455 kts 352°
2026-04-22 13:36 22.71146 -98.86847 21369 ft 449 kts 352°
2026-04-22 13:36 22.74257 -98.87128 20706 ft 446 kts 352°
2026-04-22 13:36 22.77333 -98.87405 20107 ft 442 kts 352°
2026-04-22 13:36 22.80351 -98.87678 19499 ft 439 kts 352°
2026-04-22 13:37 22.83384 -98.87952 18868 ft 436 kts 352°
2026-04-22 13:37 22.86398 -98.88225 18353 ft 431 kts 352°
2026-04-22 13:37 22.89388 -98.88496 17544 ft 432 kts 353°
2026-04-22 13:37 22.92369 -98.88765 17017 ft 426 kts 353°
2026-04-22 13:38 22.95302 -98.89031 16402 ft 422 kts 353°
2026-04-22 13:38 23.01080 -98.89555 15298 ft 414 kts 354°
2026-04-22 13:38 23.03959 -98.89815 14670 ft 413 kts 354°
2026-04-22 13:39 23.06807 -98.90074 14219 ft 408 kts 354°
2026-04-22 13:39 23.09648 -98.90333 13613 ft 406 kts 354°
2026-04-22 13:39 23.12428 -98.90585 13107 ft 402 kts 354°
2026-04-22 13:39 23.15223 -98.90840 12537 ft 399 kts 354°
2026-04-22 13:40 23.17981 -98.91090 12067 ft 395 kts 354°
2026-04-22 13:40 23.20682 -98.91335 11741 ft 387 kts 353°
2026-04-22 13:40 23.23341 -98.91577 11542 ft 376 kts 354°
2026-04-22 13:40 23.25912 -98.91812 11378 ft 365 kts 353°
2026-04-22 13:41 23.28415 -98.92039 11198 ft 355 kts 354°
2026-04-22 13:41 23.30819 -98.92258 11033 ft 346 kts 353°
2026-04-22 13:41 23.33188 -98.92474 10850 ft 338 kts 353°
2026-04-22 13:41 23.35520 -98.92688 10691 ft 329 kts 353°
2026-04-22 13:42 23.37762 -98.92892 10533 ft 321 kts 353°
2026-04-22 13:42 23.39958 -98.93093 10396 ft 312 kts 353°
2026-04-22 13:42 23.42101 -98.93290 10250 ft 304 kts 353°
2026-04-22 13:42 23.44180 -98.93480 10156 ft 296 kts 352°
2026-04-22 13:43 23.46211 -98.93668 9951 ft 296 kts 352°
2026-04-22 13:43 23.48266 -98.93855 9559 ft 296 kts 354°
2026-04-22 13:43 23.50317 -98.94044 9240 ft 295 kts 353°
2026-04-22 13:43 23.52369 -98.94232 8916 ft 293 kts 353°
2026-04-22 13:44 23.54399 -98.94418 8603 ft 292 kts 353°
2026-04-22 13:44 23.56425 -98.94604 8298 ft 292 kts 354°
2026-04-22 13:44 23.58422 -98.94787 8005 ft 291 kts 354°
2026-04-22 13:44 23.60435 -98.94972 7709 ft 290 kts 354°
2026-04-22 13:45 23.62448 -98.95157 7417 ft 289 kts 354°
2026-04-22 13:45 23.64451 -98.95341 7116 ft 289 kts 354°
2026-04-22 13:45 23.66454 -98.95526 6810 ft 288 kts 354°
2026-04-22 13:45 23.68454 -98.95710 6503 ft 288 kts 354°
2026-04-22 13:46 23.70374 -98.96261 6152 ft 286 kts 330°
2026-04-22 13:46 23.71862 -98.97599 5834 ft 279 kts 310°
2026-04-22 13:46 23.73161 -98.99167 5559 ft 277 kts 310°
2026-04-22 13:46 23.74457 -99.00728 5267 ft 276 kts 310°
2026-04-22 13:47 23.75746 -99.02283 4972 ft 274 kts 309°
2026-04-22 13:47 23.77015 -99.03819 4729 ft 268 kts 310°
2026-04-22 13:47 23.78233 -99.05294 4585 ft 255 kts 309°
2026-04-22 13:47 23.79393 -99.06690 4445 ft 242 kts 311°
2026-04-22 13:48 23.80781 -99.07650 4061 ft 242 kts 344°
2026-04-22 13:48 23.82449 -99.07680 3618 ft 244 kts 16°
2026-04-22 13:48 23.83893 -99.06777 3247 ft 238 kts 50°
2026-04-22 13:48 23.84543 -99.05224 3061 ft 217 kts 86°
2026-04-22 13:49 23.84655 -99.03647 3039 ft 204 kts 96°
2026-04-22 13:49 23.84575 -99.02121 3065 ft 199 kts 103°
2026-04-22 13:49 23.83922 -99.00899 2930 ft 184 kts 151°
2026-04-22 13:49 23.82715 -99.00582 3036 ft 183 kts 174°
2026-04-22 13:50 23.81857 -99.00415 3042 ft 186 kts 169°
2026-04-22 13:50 23.80186 -98.99963 2890 ft 186 kts 167°
2026-04-22 13:50 23.78978 -98.99565 2584 ft 174 kts 165°
2026-04-22 13:50 23.77880 -98.99149 2268 ft 158 kts 161°
2026-04-22 13:51 23.76889 -98.98761 2080 ft 146 kts 163°
2026-04-22 13:51 23.75946 -98.98392 2020 ft 147 kts 161°
2026-04-22 13:51 23.74987 -98.97956 1978 ft 147 kts 159°
2026-04-22 13:51 23.74080 -98.97456 1718 ft 149 kts 153°
2026-04-22 13:52 23.73178 -98.96932 1343 ft 148 kts 158°
2026-04-22 13:52 23.72200 -98.96502 1080 ft 156 kts 157°
2026-04-22 13:52 23.71182 -98.96033 824 ft 158 kts 157°
2026-04-22 13:52 23.70237 -98.95599 790 ft 127 kts 156°
2026-04-22 13:53 23.69774 -98.95381 790 ft 43 kts 156°
2026-04-22 13:53 23.69507 -98.95220 790 ft 37 kts 121°
2026-04-22 13:53 23.69449 -98.95200 790 ft 4 kts 224°
2026-04-22 13:53 23.69446 -98.95223 790 ft 4 kts 290°
2026-04-22 13:54 23.69498 -98.95257 790 ft 16 kts 342°
2026-04-22 13:54 23.69654 -98.95319 790 ft 32 kts 338°
2026-04-22 13:54 23.69899 -98.95442 790 ft 45 kts 335°
2026-04-22 13:54 23.70214 -98.95589 790 ft 52 kts 337°
2026-04-22 13:55 23.70543 -98.95740 790 ft 46 kts 337°
2026-04-22 13:55 23.70852 -98.95759 790 ft 44 kts
2026-04-22 13:55 23.71039 -98.95686 790 ft 12 kts 51°
2026-04-22 13:55 23.71044 -98.95680 790 ft 1 kts 43°
2026-04-22 13:56 23.71058 -98.95673 790 ft 5 kts 12°
2026-04-22 13:56 23.71117 -98.95685 790 ft 1 kts
2026-04-22 13:56 23.71130 -98.95677 790 ft 2 kts 43°
2026-04-22 13:56 23.71139 -98.95663 790 ft 1 kts 63°
2026-04-22 13:57 23.71142 -98.95655 790 ft 0 kts 65°